sat.trackr.live / text

‹ back to catalog

STARLINK-2457

NORAD 48321 · 2021-036AX

PAYLOAD ACTIVE UNKNOWN

§ Identity

Operator
Country
US
Launch date
2021-04-29
Launch site
AFETR
Launch vehicle
Mass (kg)
RCS (m²)

Purposes: comms

External: N2YO · Heavens-Above · Gunter

§ Orbital elements

Epoch: 2026-09-20T01:42:41.046624Z

Period
94.01 min
Inclination
53.1592°
Eccentricity
0.0001268
Mean motion
15.31711525 rev/d
Perigee alt
469.8 km
Apogee alt
471.6 km
Semi-major
6,848.8 km
B*
3.7348e-5
RAAN
276.4499°
Arg perigee
71.0404°
Mean anomaly
289.0735°
Rev number
29,782

§ Raw data

STARLINK-24571 48321U 21036AX  26263.07130841  .00000794  00000+0  37348-4 0  99912 48321  53.1592 276.4499 0001268  71.0404 289.0735 15.31711525297822

JSON: /api/v1/satellites/48321 · /tle

For live sub-satellite position, see the globe view (requires WebGL).

§ Visibility from observer

Set your observer location to see the next 7 days of passes ≥ 10°. The values pass through the URL so the page stays shareable.

No JS? Fill the form by hand. The geolocation button needs JavaScript.